Location: Davidschlag
(48.4333°N, 14.2833°E)
Time: 07:27:23
(UTC+00:00)

STARLINK-1050 - Pass Details

Date: 27 February 2020
Orbit: 548 x 551 km, 53.0° (Epoch: 31 March)

Event Time Altitude Azimuth Distance (km) Brightness Sun altitude
Rises 18:37:58 0° 248° (WSW) 2,711 8.1 -19.8°
Reaches altitude 10° 18:40:12 10° 249° (WSW) 1,820 7.1 -20.2°
Maximum altitude 18:44:20 78° 336° (NNW) 568 3.6 -20.9°
Enters shadow 18:45:09 55° 48° (NE) 662 3.7 -21.0°
